DECAYED

STARLINK-1528, 47620 (Decayed)

Orbit data source: Space-Track

STARLINK-1528, 47620 was a payload satellite owned by SpaceX/Seattle (US) in LEO that was launched on Tue, 16 Feb 2021 UTC via an FALCON 9 launch vehicle from the Air Force Eastern Test Range (AFETR). Payload-class satellites include a variety of spacecraft equipped with specific instruments for various scientific and technological missions. These include communications satellites like Starlink; space stations such as the ISS; scientific satellites like the Hubble; Earth observation satellites from companies like Planet Labs, Umbra, and HawkEye 360; GPS; miniature CubeSats for education and research; and military/defense satellites.

Not visible in the next 10 days
Identifier
47620, 2021-012A
Orbit
Decayed
Country
Flag of USUS
Related business
Manufacturer
SpaceX/Seattle
Mission
Decayed Commercial Communications
Bus & Motor
STARLINK, Unknown motor
Mass
260 kg wet, ~248 kg dry
Launch date (UTC)
2021-02-16 (5 years ago)
Launch vehicle
FALCON 9
Launch site
Air Force Eastern Test Range (AFETR)
Object type
Payload
Rocket body
Debris
Shape & HBR
Box + 1 Pan, 4.4 m
Radar Cross Section
13.562 m², Large (>1 m²)

Expand to show TLE details & history
Last TLE update: 8 months ago

TLE from 8 months ago
0 STARLINK-1528
1 47620U 21012A   25005.55312269  .95700292  12687-4  10013-2 0  9999
2 47620  53.0352 172.2888 0003290 350.0097  84.8237 16.50531128215230
Epoch: 2025-01-05T13:16Z
TLE epoch observation values (Epoch: 2025-01-05T13:16:29.8Z)
Latitude
50.62877°
Longitude
-66.45871°
Altitude
143.642 km
Speed
7.827 km/s
True Right ascension
15h 52m 12s
True Declination
50° 26' 39"
Sunlit
Object was in daylight at epoch
Visualization orbit readout
Latitude
Unknown
Longitude
Unknown
Altitude
Unknown
Speed
Unknown
Apparent Right ascension
Unknown
Apparent Declination
Unknown
Sunlit
N/A
Visualization observer readout
Local Sidereal Time
18:05:31
Azimuth
Unknown
Elevation
Unknown
Doppler factor
Unknown
Orbital elements
Apogee altitude
140.372 km
Perigee altitude
136.084 km
Semi-major axis
6,516.365 km
Eccentricity
0.00033
Inclination
53.0352°
RAAN
172.2888°
Arg. of periapsis
350.0097°
True anomaly
84.86125°
Mean anomaly
84.8237°
Eccentric anomaly
84.84247°
Mean motion
4.12606 °/min
Orbital period
87.25 mins
BSTAR
0.0010013
Loading maneuver chart data...
Computing Atmospheric mass density...
Loading historical data...
Loading historical data...
Loading historical data...
Loading historical data...
Loading historical data...
Loading historical data...
Loading historical data...

Documentation

Showing up to 5 results
|